Temperature
20 20 20 19 19 19 19 18 18 18 18 18 17 17 17 17 17 17 16 16 16 16 16 16 16 16 16 15 15 15 15 15 15 14 13 13 13 13 13 13 13 13 13
20 20 20 19 19 19 18 18 18 18 18 18 17 17 17 17 17 16 16 16 16 16 16 16 16 15 15 15 15 15 15 15 15 14 13 13 13 13 13 12 12 12 12
20 20 19 19 19 19 18 18 18 18 18 17 17 17 17 17 16 16 16 16 16 15 15 15 15 15 15 15 15 15 15 15 14 14 13 13 13 12 12 12 12 12 12
20 20 19 19 19 18 18 18 18 18 17 17 17 17 16 16 16 16 16 15 15 15 15 15 15 15 15 15 15 15 14 14 14 14 13 13 12 12 12 12 12 12 12
20 19 19 19 19 18 18 18 18 17 17 17 17 16 16 16 16 16 15 15 15 15 15 15 15 15 15 15 15 15 14 14 14 13 13 13 12 12 12 12 12 12 11
20 19 19 19 19 18 18 18 17 17 17 17 16 16 16 16 15 15 15 15 15 15 14 14 14 14 14 14 14 14 14 14 14 13 13 13 12 12 12 12 12 11 11
20 19 19 19 18 18 18 17 17 17 17 16 16 16 16 16 15 15 15 15 14 14 14 14 14 14 14 14 14 14 14 14 14 13 13 13 12 12 12 12 12 12 11
20 19 19 19 18 18 17 17 17 17 16 16 16 16 16 15 15 15 15 14 14 14 14 14 14 14 13 13 13 13 13 13 13 13 13 13 12 12 12 12 12 12 11
20 19 19 19 18 18 17 17 17 17 16 16 16 16 15 15 15 15 14 14 14 14 14 14 14 14 13 13 13 13 13 13 13 12 12 12 12 12 12 12 12 11 11
19 19 19 19 18 18 18 17 17 16 16 15 15 15 15 15 15 15 14 14 14 14 14 14 14 13 13 13 13 13 13 12 12 12 12 12 12 12 12 11 11 11 11
19 19 18 18 18 18 17 17 17 16 15 15 15 15 15 15 15 14 14 14 13 13 13 13 13 13 13 13 13 12 12 12 12 12 12 12 12 11 11 11 11 11 11
19 18 18 18 18 17 17 17 16 16 15 15 15 15 15 15 14 14 14 14 13 13 13 13 13 13 13 13 12 12 12 12 12 12 12 12 11 11 11 11 11 11 11
19 18 18 18 17 17 17 17 16 16 15 15 15 14 14 14 14 14 14 13 13 13 13 13 13 13 12 12 12 12 12 12 12 12 12 12 11 11 11 11 11 11 11
18 18 18 17 17 17 16 16 16 15 15 15 14 14 14 14 14 14 13 13 13 13 13 13 13 12 12 12 12 12 12 12 12 12 12 12 12 11 11 11 11 11 10
18 18 17 17 17 16 16 16 16 16 15 15 15 14 14 14 14 14 13 13 13 12 12 12 12 12 12 12 12 12 11 11 11 11 11 11 11 11 11 11 11 10 10
18 17 17 17 16 16 16 15 15 15 15 15 15 14 14 14 14 14 13 13 12 12 12 12 12 12 12 12 12 11 11 11 11 11 11 11 11 11 11 11 10 10 10
18 17 17 16 16 16 16 15 15 15 15 15 14 14 14 14 14 13 13 12 12 12 12 11 11 11 11 11 11 11 11 11 11 11 11 10 10 10 10 10 10 10 10
17 17 17 16 16 16 16 15 15 15 15 15 14 14 14 13 13 13 12 12 12 12 11 11 11 11 11 11 11 11 11 11 11 10 10 10 10 10 10 10 10 10 10
17 17 16 16 16 16 15 15 15 15 15 14 14 14 13 13 13 12 12 12 12 11 11 11 11 11 11 11 11 11 11 10 10 10 10 10 10 10 10 10 10 10 9
16 16 16 16 16 15 15 15 15 15 15 14 14 14 14 13 12 12 12 12 11 11 11 11 11 11 11 11 10 10 10 10 10 10 10 9 9 9 9 9 9 9 9
16 16 16 16 16 15 15 15 15 15 15 14 14 14 14 13 13 12 12 12 11 11 11 11 11 11 11 10 10 10 10 10 10 9 9 9 9 9 9 9 9 9 9
16 16 16 15 15 15 15 15 15 15 14 14 14 13 13 13 12 12 12 12 11 11 11 11 11 10 10 10 10 10 10 10 9 9 9 9 9 9 9 9 8 8 8
15 15 15 15 15 15 15 15 14 14 14 14 13 13 13 12 12 12 11 11 11 11 11 10 10 10 10 10 10 10 10 9 9 9 9 9 9 9 8 8 8 8 8
15 15 15 15 15 14 14 14 14 14 14 13 13 13 12 12 12 11 11 11 11 10 10 10 10 10 10 10 10 9 9 9 9 9 9 8 8 8 8 8 8 8 8
15 15 15 15 14 14 14 14 13 13 13 13 13 12 12 12 12 11 11 11 10 10 10 10 9 9 9 9 9 9 9 9 9 8 8 8 8 8 8 8 7 7 7
15 15 15 14 14 14 14 13 13 13 13 13 12 12 12 12 11 11 11 10 10 10 9 9 9 9 9 9 9 9 9 9 8 8 8 8 7 7 7 7 7 7 7
Wind_Speed
6 5 4 4 4 3 2 3 3 2 3 2 3 3 3 3 3 3 3 3 4 3 3 3 3 3 1 1 0 1 2 2 4 2 3 3 3 4 5 7 10 9 9
7 6 5 5 4 4 3 3 3 3 2 2 2 2 2 3 3 4 4 4 4 4 4 4 3 3 3 1 1 2 2 3 5 5 3 3 3 3 3 3 7 8 9
7 7 6 5 5 4 4 4 3 3 2 2 2 2 3 4 4 4 4 4 5 5 5 5 5 5 4 3 3 2 2 3 5 6 4 3 2 2 2 2 5 5 8
8 7 6 5 5 5 4 4 3 3 2 2 3 3 3 3 4 3 4 4 5 5 6 6 6 5 5 4 4 3 3 4 5 5 5 3 2 1 2 2 3 2 3
8 8 7 6 5 5 5 4 4 3 3 3 3 3 2 3 3 3 3 5 5 5 6 6 7 9 10 6 4 4 4 3 3 4 4 3 2 1 1 1 2 2 2
8 8 7 7 6 6 5 5 4 3 3 3 3 3 3 4 6 6 4 4 4 4 4 4 6 7 8 9 10 8 6 4 3 3 3 3 2 1 0 1 1 2 1
8 8 8 7 7 6 6 6 5 4 4 3 4 4 4 5 5 5 5 2 3 4 3 3 4 5 4 4 6 7 8 7 6 3 3 3 2 1 1 1 1 2 1
8 8 8 8 7 6 6 6 5 4 4 4 4 4 4 4 4 4 3 2 3 4 4 4 4 4 4 3 4 5 4 4 3 3 3 3 3 1 0 0 1 2 2
8 8 8 8 8 7 6 6 5 4 4 4 4 4 3 3 3 4 3 2 3 3 4 4 3 4 5 4 3 3 3 2 4 6 6 5 4 4 3 1 1 0 1
8 7 7 7 7 7 7 6 5 4 4 4 4 4 4 4 3 3 3 1 2 3 4 4 6 5 5 5 2 1 2 1 1 3 3 3 3 3 2 0 0 1 1
7 7 7 7 7 7 6 6 6 5 5 4 4 4 4 4 4 2 3 1 0 2 3 3 3 4 4 3 2 1 1 1 2 3 3 3 2 2 2 2 1 0 1
7 8 7 7 7 7 7 6 6 5 5 5 4 4 3 4 4 2 2 3 3 1 2 3 3 4 1 1 1 2 4 4 2 2 2 3 3 2 3 4 4 4 3
7 7 7 7 6 7 7 7 6 6 5 5 5 4 4 4 3 3 1 2 3 2 3 4 4 3 2 2 3 4 3 2 2 2 1 1 2 2 2 3 3 4 4
8 7 7 7 7 7 6 6 6 6 5 5 5 4 4 4 3 2 2 1 2 2 2 3 4 5 4 4 2 3 2 2 2 2 1 1 1 2 2 2 2 2 2
8 7 7 7 7 6 5 3 4 3 3 3 3 3 3 4 4 5 3 2 2 2 2 2 2 3 3 3 2 2 2 2 3 3 2 2 1 2 2 2 1 1 2
8 7 7 7 7 7 7 5 5 4 6 6 5 3 3 6 8 7 5 2 2 3 3 3 3 3 3 3 3 2 3 2 3 3 3 2 2 2 1 1 1 2 2
7 7 6 7 7 7 7 7 6 3 4 4 4 5 6 8 9 7 5 3 2 2 2 3 3 2 2 2 2 2 2 2 2 3 3 2 2 2 1 1 1 1 1
7 7 7 6 7 7 7 7 7 7 6 4 3 5 7 8 8 7 6 4 1 2 3 3 3 2 2 2 2 2 1 1 1 2 2 2 2 2 1 1 1 1 2
6 6 6 6 6 6 6 6 6 7 6 5 4 4 5 6 5 4 5 3 4 4 3 3 3 2 2 2 2 2 2 2 1 2 1 2 2 1 1 2 1 1 2
5 5 5 5 5 5 5 5 6 6 6 6 6 6 6 5 4 4 5 5 4 4 4 4 4 3 2 2 2 2 2 2 2 2 2 2 2 2 2 2 2 2 2
5 5 6 5 5 5 5 5 5 5 5 5 5 7 10 7 6 6 6 6 5 5 4 4 3 3 3 2 2 2 3 2 2 2 2 2 2 2 2 3 3 3 2
4 4 4 4 4 3 4 4 4 4 5 5 4 6 12 7 6 5 5 5 5 4 3 3 3 2 3 3 2 2 2 2 2 2 2 2 2 3 3 3 2 2 3
5 5 4 4 3 3 3 3 3 4 4 4 4 5 6 5 4 4 4 4 3 3 2 2 2 2 1 1 1 1 1 2 2 1 2 2 2 3 2 2 3 4 3
5 5 4 4 3 3 3 3 3 4 4 4 4 4 5 5 4 3 3 3 3 3 2 2 1 1 0 0 1 1 0 1 2 2 2 3 3 3 2 2 3 4 4
4 4 4 4 4 3 3 3 3 3 3 3 3 4 4 5 4 4 3 3 3 3 2 2 1 1 1 1 2 2 3 3 2 2 2 3 3 3 3 3 3 4 4
4 3 3 3 3 3 3 3 3 4 3 4 4 4 4 4 4 4 3 3 3 3 2 2 1 1 1 2 3 5 4 3 2 2 2 3 3 3 3 3 4 4 4
Wind_Direction
166 161 148 151 153 146 123 104 98 86 76 63 59 55 56 54 47 47 55 49 46 38 33 51 43 45 49 63 73 100 109 126 135 124 100 109 97 108 129 128 126 119 110
163 155 153 148 146 146 135 121 117 109 95 85 73 67 69 68 56 49 44 48 48 42 38 41 38 46 53 53 67 82 96 113 129 128 123 121 121 130 146 143 135 132 128
159 157 156 154 150 148 139 128 125 123 114 100 88 78 65 66 65 57 58 52 49 46 42 42 39 42 41 43 59 68 91 109 119 131 131 124 126 135 130 128 124 134 137
156 155 156 156 155 153 144 137 136 130 118 103 91 85 79 73 64 57 74 69 62 57 54 54 51 47 40 45 63 60 82 99 111 121 124 125 108 133 132 144 136 146 138
156 157 156 153 150 150 143 139 137 138 126 106 105 99 99 88 64 50 74 91 79 74 71 73 73 70 60 54 72 63 74 88 111 118 120 113 99 120 163 195 145 153 138
157 156 152 154 156 153 147 142 137 128 115 112 107 94 84 78 60 49 51 78 86 82 83 90 101 84 78 72 71 69 67 84 89 103 107 119 117 129 197 169 131 144 161
157 157 158 160 161 161 158 148 146 141 132 119 105 98 92 76 65 55 48 74 91 87 81 77 86 82 76 85 83 77 68 64 74 90 103 114 129 137 201 207 178 156 150
164 164 163 166 166 163 159 154 152 147 140 133 119 112 109 89 64 50 36 95 91 91 82 76 80 66 45 54 99 96 88 65 67 85 88 83 87 71 318 218 250 163 149
169 171 171 170 166 166 166 160 156 149 145 142 135 127 115 99 65 41 20 133 117 99 88 73 80 71 35 41 105 112 108 115 97 97 105 110 104 80 50 27 359 19 168
174 171 169 167 166 169 165 158 153 150 154 152 143 139 136 126 96 45 360 185 146 128 117 100 74 70 52 37 86 113 128 153 132 139 141 164 167 161 145 150 321 312 325
166 164 163 164 166 162 153 153 156 160 157 152 148 149 148 139 133 83 16 339 194 147 136 124 107 96 71 39 24 23 333 290 247 199 172 168 169 175 179 184 186 213 309
159 161 162 163 169 159 156 159 161 163 164 164 165 164 152 135 121 101 45 13 353 59 108 112 125 139 131 344 338 339 331 316 270 229 182 178 183 188 191 184 192 208 212
157 160 161 162 159 157 164 167 171 176 180 177 181 186 171 153 140 128 110 27 28 56 82 114 143 176 222 246 247 278 300 294 282 274 243 208 185 192 191 188 199 213 224
159 159 163 164 165 166 173 176 180 181 186 184 186 189 172 157 156 163 185 171 129 116 126 151 186 212 242 270 258 247 239 272 293 286 274 258 219 184 193 194 202 201 212
163 168 175 173 167 166 167 164 172 152 169 179 182 180 165 162 171 178 182 193 208 182 176 195 213 211 218 225 229 229 222 236 266 283 287 273 252 224 211 202 211 226 232
172 176 182 180 174 175 171 153 71 103 120 112 112 125 128 137 144 142 139 140 166 168 186 214 221 230 236 230 220 221 228 236 248 249 259 269 270 261 251 228 213 232 261
182 182 189 186 180 184 183 178 170 127 93 95 112 125 140 149 150 148 136 122 147 165 214 246 248 240 252 250 241 234 228 225 240 255 250 255 270 271 260 250 247 257 270
193 191 196 194 186 188 193 190 186 182 181 183 170 163 159 161 165 162 145 130 193 202 237 256 263 249 257 279 275 267 252 229 224 252 255 266 273 280 291 285 264 280 292
199 198 201 204 191 190 195 194 195 193 187 177 160 157 168 161 158 161 155 203 225 219 229 247 255 245 243 255 272 275 262 244 236 249 247 267 273 273 289 294 285 261 269
203 196 196 207 203 193 195 199 199 192 189 184 181 174 160 162 179 184 196 214 225 227 231 236 243 238 230 238 247 254 257 247 232 245 244 240 253 265 270 280 290 287 278
202 196 196 208 210 199 197 201 202 201 196 190 181 168 163 183 195 194 195 204 217 225 228 235 237 226 226 235 242 248 257 264 250 245 244 246 249 248 263 266 263 275 294
213 199 202 215 216 207 201 199 203 200 191 185 175 164 167 187 202 201 203 204 207 215 225 232 244 241 232 225 227 231 256 275 273 270 263 254 244 246 252 264 280 293 287
217 208 206 214 217 194 200 199 196 203 197 189 182 167 177 197 202 204 202 201 201 207 217 219 237 253 273 242 199 194 242 268 271 263 276 281 277 265 258 260 270 277 276
226 214 207 199 198 204 209 204 205 204 196 193 183 172 178 189 197 193 190 184 186 189 191 211 233 241 299 282 227 215 111 281 286 277 285 279 280 287 287 286 283 287 283
227 217 206 197 193 196 204 208 218 211 192 188 190 184 185 187 196 201 191 178 173 181 196 187 186 229 202 118 75 71 55 38 16 341 309 302 300 302 301 294 291 291 288
225 211 200 193 192 190 190 202 223 219 199 191 192 189 187 190 192 192 185 180 182 179 179 170 194 209 120 109 89 85 73 48 21 350 294 287 293 293 298 294 293 291 293
Height
1538 1539 1540 1541 1542 1543 1543 1543 1543 1543 1543 1542 1542 1542 1541 1541 1540 1540 1540 1539 1539 1538 1538 1538 1537 1538 1538 1538 1538 1539 1539 1540 1540 1541 1542 1543 1543 1543 1543 1543 1543 1543 1542
1537 1538 1539 1540 1541 1541 1542 1542 1542 1542 1542 1542 1542 1541 1541 1541 1540 1540 1539 1539 1539 1538 1538 1537 1537 1537 1537 1537 1537 1538 1538 1539 1539 1540 1541 1542 1543 1543 1543 1544 1543 1543 1543
1535 1537 1538 1539 1539 1540 1541 1541 1541 1541 1541 1541 1541 1541 1541 1540 1540 1540 1539 1539 1538 1538 1538 1537 1537 1537 1536 1537 1537 1538 1538 1539 1539 1540 1541 1542 1542 1543 1543 1544 1544 1544 1544
1534 1535 1536 1537 1538 1539 1539 1540 1540 1541 1541 1541 1541 1541 1541 1540 1540 1539 1539 1539 1538 1538 1538 1538 1537 1537 1537 1537 1537 1538 1538 1539 1539 1540 1541 1542 1542 1543 1543 1544 1544 1544 1544
1533 1534 1535 1536 1537 1538 1538 1539 1540 1540 1540 1540 1540 1540 1540 1540 1540 1540 1539 1539 1539 1538 1538 1538 1538 1538 1538 1538 1538 1538 1538 1539 1539 1540 1540 1541 1541 1542 1542 1543 1543 1544 1544
1531 1532 1534 1535 1536 1537 1537 1538 1539 1539 1540 1540 1540 1540 1540 1540 1540 1540 1540 1539 1539 1539 1539 1539 1539 1539 1538 1538 1538 1538 1539 1539 1540 1540 1540 1541 1541 1542 1542 1542 1543 1543 1543
1530 1531 1532 1534 1535 1536 1537 1537 1538 1539 1539 1539 1539 1539 1539 1540 1540 1540 1540 1539 1539 1539 1539 1539 1539 1539 1539 1539 1539 1539 1540 1540 1541 1541 1541 1541 1541 1542 1542 1542 1542 1542 1542
1528 1530 1531 1532 1533 1535 1536 1536 1537 1537 1538 1538 1538 1539 1539 1539 1540 1540 1540 1540 1539 1539 1539 1539 1539 1539 1539 1539 1540 1540 1540 1540 1541 1541 1541 1541 1541 1541 1541 1542 1542 1542 1542
1526 1528 1529 1531 1532 1533 1534 1535 1536 1536 1537 1537 1538 1538 1539 1539 1539 1539 1540 1539 1539 1539 1539 1539 1539 1539 1540 1540 1540 1540 1540 1540 1541 1541 1541 1541 1541 1541 1541 1541 1541 1541 1541
1524 1526 1528 1529 1530 1532 1533 1534 1535 1536 1536 1537 1537 1538 1538 1538 1539 1539 1539 1539 1539 1539 1539 1539 1539 1539 1539 1540 1540 1540 1540 1540 1540 1540 1540 1540 1540 1540 1540 1540 1540 1540 1540
1523 1524 1526 1527 1529 1530 1531 1532 1533 1534 1535 1536 1536 1537 1538 1538 1538 1538 1539 1539 1539 1539 1539 1538 1539 1539 1539 1539 1539 1540 1540 1540 1540 1540 1540 1539 1539 1539 1539 1539 1539 1539 1539
1521 1523 1524 1526 1527 1528 1529 1531 1532 1533 1534 1534 1535 1536 1537 1537 1537 1538 1538 1538 1538 1538 1538 1538 1538 1538 1538 1538 1539 1539 1539 1539 1539 1539 1539 1538 1538 1538 1538 1538 1538 1537 1537
1519 1521 1522 1524 1525 1526 1527 1528 1530 1531 1532 1533 1534 1534 1535 1535 1536 1536 1537 1537 1537 1537 1537 1537 1537 1537 1537 1537 1538 1538 1538 1538 1538 1538 1538 1538 1537 1537 1537 1536 1536 1536 1535
1516 1518 1520 1521 1523 1524 1525 1527 1528 1529 1530 1531 1532 1533 1533 1533 1534 1534 1535 1535 1535 1535 1536 1536 1536 1536 1536 1536 1536 1536 1536 1536 1536 1536 1536 1536 1536 1536 1535 1535 1534 1534 1533
1513 1515 1518 1519 1520 1521 1523 1524 1526 1527 1528 1529 1530 1531 1531 1531 1532 1533 1533 1533 1534 1534 1534 1534 1534 1534 1534 1534 1534 1534 1534 1534 1533 1533 1533 1533 1533 1533 1533 1533 1532 1532 1531
1510 1512 1515 1517 1518 1519 1520 1522 1523 1524 1525 1526 1527 1529 1529 1529 1529 1530 1531 1531 1532 1533 1533 1532 1532 1532 1532 1532 1532 1531 1531 1531 1530 1531 1530 1531 1531 1530 1530 1530 1529 1529 1528
1508 1510 1512 1514 1515 1516 1518 1519 1520 1522 1523 1524 1525 1525 1526 1527 1527 1528 1528 1529 1530 1530 1530 1530 1530 1530 1530 1530 1530 1529 1528 1528 1528 1528 1528 1528 1528 1528 1527 1527 1527 1526 1525
1505 1508 1510 1511 1512 1513 1515 1516 1517 1518 1519 1520 1521 1522 1523 1524 1524 1525 1526 1526 1526 1527 1527 1527 1527 1527 1527 1527 1527 1526 1526 1525 1525 1525 1525 1525 1525 1525 1524 1524 1524 1523 1522
1502 1505 1506 1508 1510 1511 1512 1513 1514 1515 1516 1517 1517 1518 1519 1520 1521 1522 1522 1522 1523 1523 1524 1524 1524 1524 1524 1524 1524 1523 1523 1523 1522 1522 1522 1521 1521 1521 1521 1521 1521 1520 1519
1500 1501 1503 1505 1507 1508 1509 1510 1511 1512 1513 1514 1514 1514 1515 1516 1516 1517 1518 1519 1519 1520 1520 1521 1521 1521 1521 1521 1520 1520 1520 1520 1519 1519 1519 1518 1518 1518 1518 1518 1517 1517 1516
1497 1499 1500 1502 1503 1504 1505 1507 1508 1508 1510 1510 1511 1511 1511 1512 1513 1514 1515 1515 1516 1516 1517 1517 1517 1517 1517 1517 1517 1517 1517 1517 1516 1515 1515 1515 1515 1515 1514 1514 1514 1514 1513
1495 1496 1497 1499 1500 1502 1503 1504 1505 1505 1506 1507 1508 1508 1509 1509 1510 1511 1512 1512 1513 1513 1514 1514 1514 1514 1514 1514 1514 1513 1513 1513 1513 1512 1512 1512 1512 1511 1511 1511 1510 1510 1509
1493 1494 1495 1496 1497 1498 1499 1500 1501 1502 1502 1503 1504 1505 1505 1506 1507 1508 1508 1509 1509 1510 1511 1511 1511 1511 1511 1511 1511 1510 1510 1509 1509 1509 1509 1508 1508 1508 1508 1507 1507 1506 1506
1490 1491 1492 1493 1494 1495 1496 1496 1497 1498 1499 1500 1501 1501 1502 1502 1504 1504 1505 1506 1506 1507 1508 1508 1508 1508 1508 1508 1508 1507 1507 1507 1506 1506 1505 1505 1505 1505 1505 1504 1503 1503 1502
1487 1487 1489 1489 1490 1491 1492 1493 1494 1493 1494 1496 1497 1498 1499 1499 1500 1501 1501 1502 1503 1503 1504 1505 1505 1504 1505 1505 1504 1504 1504 1503 1503 1503 1502 1502 1502 1501 1501 1500 1500 1499 1499
1483 1484 1485 1486 1487 1488 1488 1489 1490 1490 1490 1492 1493 1494 1495 1496 1497 1498 1498 1499 1499 1500 1500 1501 1501 1501 1501 1501 1501 1500 1500 1500 1500 1499 1499 1498 1498 1498 1498 1497 1497 1496 1496